CAPE
0 0 0 0 0 0 0 0 0 0 0 0 0 0 0 0 0 0 0 0 0 0
0 0 0 0 0 0 0 0 0 0 0 0 0 0 0 0 0 0 0 0 0 0
0 0 0 0 0 0 0 0 0 0 0 0 0 0 0 0 0 0 0 0 0 0
0 0 0 0 0 0 0 0 0 0 0 0 0 0 0 0 0 0 0 0 0 0
0 0 0 0 0 0 0 0 0 0 0 0 0 0 0 0 0 0 0 0 0 0
0 0 0 0 0 0 0 0 0 0 0 0 0 0 0 0 0 0 0 0 0 0
0 0 0 0 0 0 0 0 0 0 0 0 0 0 0 0 0 0 0 0 0 0
0 0 0 0 0 0 0 0 0 0 0 0 0 0 0 0 0 0 0 0 0 0
0 0 0 0 0 0 0 0 0 0 0 0 0 0 0 0 0 0 0 0 0 0
0 0 0 0 0 0 0 0 0 0 0 0 0 0 0 0 0 0 0 0 0 0
0 0 0 0 0 0 0 0 0 0 0 0 0 0 0 0 0 0 0 0 0 0
0 0 0 0 0 0 0 0 0 0 0 0 0 0 0 0 0 0 0 0 0 2
0 0 0 0 0 0 0 0 0 0 0 0 0 0 0 0 0 0 0 0 0 0
0 0 0 0 0 0 0 0 0 0 0 0 0 0 0 0 0 0 1 0 0 0
CIN
-0 -0 -0 -0 -0 -0 -0 -0 -0 -0 -0 -0 -0 -0 -0 -0 -0 -0 -0 -0 -0 -0
-0 -0 -0 -0 -0 -0 -0 -0 -0 -0 -0 -0 -0 -0 -0 -0 -0 -0 -0 -0 -0 -0
-0 -0 -0 -0 -0 -0 -0 -0 -0 -0 -0 -0 -0 -0 -0 -0 -0 -0 -0 -0 -0 -0
-0 -0 -0 -0 -0 -0 -0 -0 -0 -0 -0 -0 -0 -0 -0 -0 -0 -0 -0 -0 -0 -0
-0 -0 -0 -0 -0 -0 -0 -0 -0 -0 -0 -0 -0 -0 -0 -0 -0 -0 -0 -0 -0 -0
-0 -0 -0 -0 -0 -0 -0 -0 -0 -0 -0 -0 -0 -0 -0 -0 -0 -0 -0 -0 -0 -0
-0 -0 -0 -0 -0 -0 -0 -0 -0 -0 -0 -0 -0 -0 -0 -0 -0 -0 -0 -0 -0 -0
-0 -0 -0 -0 -0 -0 -0 -0 -0 -0 -0 -0 -0 -0 -0 -0 -0 -0 -0 -0 -0 -0
-0 -0 -0 -0 -0 -0 -0 -0 -0 -0 -0 -0 -0 -0 -0 -0 -0 -0 -0 -0 -0 -0
-0 -0 -0 -0 -0 -0 -0 -0 -0 -0 -0 -0 -0 -0 -0 -0 -0 -0 -0 -0 -0 -0
-0 -0 -0 -0 -0 -0 -0 -0 -0 -0 -0 -0 -0 -0 -0 -0 -0 -0 -0 -0 -0 -0
-0 -0 -0 -0 -0 -0 -0 -0 -0 -0 -0 -0 -0 -0 -0 -0 -0 -0 -0 -0 -0 -3
-0 -0 -0 -0 -0 -0 -0 -0 -0 -0 -0 -0 -0 -0 -0 -0 -0 -0 -0 -0 -0 -0
-0 -0 -0 -0 -0 -0 -0 -0 -0 -0 -0 -0 -0 -0 -0 -0 -0 -0 -3 -0 -0 -0
Wind_Speed
4 3 5 7 11 14 18 21 23 25 27 28 29 31 32 33 34 34 35 36 34 36
3 4 6 9 13 16 19 21 24 26 28 29 30 32 33 35 36 36 35 36 36 38
3 5 8 11 15 18 20 23 25 27 29 30 32 34 35 36 37 37 37 37 39 40
4 7 10 14 17 19 22 24 26 28 30 33 34 36 37 38 37 38 40 40 42 42
5 9 12 15 18 21 23 25 28 30 32 34 35 37 38 38 38 40 42 43 44 45
7 11 14 17 20 22 25 27 29 31 33 35 36 37 37 37 39 41 43 44 46 47
9 12 15 18 20 24 26 29 30 32 34 35 36 36 37 39 41 42 43 45 46 47
10 13 16 19 22 25 27 29 30 33 35 36 36 37 40 42 43 44 46 47 47 47
11 14 17 20 23 26 28 30 32 34 36 37 38 40 42 43 44 44 47 51 49 48
11 15 18 21 24 27 29 31 33 35 36 38 40 40 41 43 43 45 47 50 50 50
13 16 20 22 25 27 29 32 34 36 38 39 40 40 42 44 44 45 46 48 48 48
14 17 20 23 26 28 31 33 35 36 38 40 40 41 44 45 46 48 48 47 46 44
14 18 21 24 27 29 31 34 35 37 38 38 41 42 44 45 47 50 50 47 43 42
16 19 22 25 28 31 32 35 37 37 38 39 40 42 44 45 47 49 49 48 45 43
Wind_Direction
97 60 19 3 355 351 348 348 348 347 347 347 346 345 344 343 341 340 338 337 337 335
70 32 10 0 356 351 349 347 346 346 345 345 345 344 342 340 339 338 338 337 336 334
36 13 3 356 351 349 347 347 346 345 345 344 343 342 341 339 339 338 338 336 334 333
11 1 355 351 349 347 346 345 345 344 343 342 341 341 340 339 339 338 336 335 334 332
2 354 349 347 346 345 344 345 344 343 341 341 340 340 340 339 339 337 335 334 333 332
348 346 345 344 344 345 344 343 343 342 341 340 340 340 341 340 338 337 336 335 333 332
341 342 342 344 344 344 344 343 342 343 341 342 341 341 341 339 338 337 337 336 336 334
339 341 343 343 343 344 343 344 343 342 342 342 342 342 340 339 338 338 338 337 336 336
339 341 342 342 343 344 343 343 343 343 342 341 341 340 339 340 340 339 338 337 337 336
340 340 341 342 343 342 343 343 343 342 342 341 341 341 341 341 340 340 339 337 336 336
341 340 342 342 342 343 343 343 342 342 341 341 341 342 341 341 341 339 339 338 337 336
342 342 343 343 343 343 342 342 342 342 342 342 343 343 342 342 341 339 338 339 339 339
347 345 344 343 343 343 343 343 343 343 344 344 343 344 343 343 341 339 339 340 341 342
348 346 345 344 345 344 344 343 343 344 345 345 346 345 344 344 342 341 341 341 342 343